{"data":{"norad_id":59723,"intl_designator":"2024-088R","name":"STARLINK-31766","alt_names":[],"object_type":"PAYLOAD","status":"ACTIVE","operator":null,"country":"US","launch_date":"2024-05-10","launch_site_code":"AFWTR","launch_vehicle":null,"mission":null,"orbit_class":"UNKNOWN","rcs_meters":null,"size_class":null,"mass_kg":null,"dimensions":null,"purposes":["comms"],"wikipedia_slug":null,"has_3d_model":false,"image_url":null,"decayed_at":null,"tle_current":{"epoch":"2026-09-21T10:08:59.856864Z","epoch_age_seconds":91636,"freshness":"FRESH","line1":"1 59723U 24088R   26264.42291501  .00000290  00000+0  19728-4 0  9993","line2":"2 59723  53.1589 309.0621 0001104  77.9772 282.1354 15.34390789133679","mean_motion":15.34390789,"eccentricity":0.0001104,"inclination_deg":53.1589,"raan_deg":309.0621,"arg_perigee_deg":77.9772,"mean_anomaly_deg":282.1354,"bstar":1.9728e-5,"rev_number":13367,"period_min":93.848321452613,"perigee_km":461.97538559223,"apogee_km":463.48584916215,"semimajor_km":6840.8676173772,"source":"CELESTRAK","updated_at":"2026-09-22T09:00:49.060390Z"}}}